TimeCST,TemperatureF,Dew PointF,Humidity,Sea Level PressureIn,VisibilityMPH,Wind Direction,Wind SpeedMPH,Gust SpeedMPH,PrecipitationIn,Events,Conditions,WindDirDegrees,DateUTC
12:53 AM,21.0,6.1,53,30.20,10.0,SSE,4.6,-,N/A,,Clear,150,2013-03-03 06:53:00
1:53 AM,18.0,7.0,62,30.19,10.0,SSE,3.5,-,N/A,,Clear,160,2013-03-03 07:53:00
2:53 AM,17.1,8.1,68,30.18,10.0,SSE,4.6,-,N/A,,Clear,160,2013-03-03 08:53:00
3:53 AM,17.1,9.0,71,30.17,10.0,South,3.5,-,N/A,,Overcast,170,2013-03-03 09:53:00
4:53 AM,19.0,8.1,62,30.16,10.0,SE,4.6,-,N/A,,Overcast,140,2013-03-03 10:53:00
5:53 AM,17.6,8.6,68,30.14,10.0,SSE,5.8,-,N/A,,Overcast,150,2013-03-03 11:53:00
6:53 AM,18.0,9.0,68,30.17,10.0,ESE,3.5,-,N/A,,Overcast,110,2013-03-03 12:53:00
7:53 AM,19.0,8.1,62,30.17,10.0,SE,6.9,-,N/A,,Overcast,140,2013-03-03 13:53:00
8:53 AM,21.2,6.8,54,30.13,10.0,SE,10.4,-,N/A,,Mostly Cloudy,130,2013-03-03 14:53:00
9:53 AM,23.0,9.0,55,30.15,10.0,ESE,9.2,-,N/A,,Mostly Cloudy,120,2013-03-03 15:53:00
10:53 AM,26.1,8.1,47,30.14,10.0,ESE,10.4,-,N/A,,Partly Cloudy,110,2013-03-03 16:53:00
11:53 AM,28.0,10.0,47,30.13,10.0,SE,10.4,-,N/A,,Mostly Cloudy,130,2013-03-03 17:53:00
12:53 PM,28.9,10.9,47,30.10,10.0,East,8.1,-,N/A,,Mostly Cloudy,100,2013-03-03 18:53:00
1:53 PM,30.0,10.9,45,30.07,10.0,ESE,9.2,-,N/A,,Clear,120,2013-03-03 19:53:00
2:53 PM,30.9,10.0,42,30.06,10.0,ESE,12.7,-,N/A,,Clear,110,2013-03-03 20:53:00
3:53 PM,32.0,10.0,40,30.05,10.0,ESE,10.4,-,N/A,,Clear,120,2013-03-03 21:53:00
4:53 PM,30.9,9.0,40,30.04,10.0,ESE,10.4,-,N/A,,Clear,120,2013-03-03 22:53:00
5:53 PM,30.9,10.0,42,30.04,10.0,ESE,10.4,-,N/A,,Clear,110,2013-03-03 23:53:00
6:53 PM,28.9,7.0,40,30.05,10.0,East,9.2,-,N/A,,Clear,90,2013-03-04 00:53:00
7:53 PM,28.9,5.0,36,30.05,10.0,East,10.4,-,N/A,,Scattered Clouds,100,2013-03-04 01:53:00
8:53 PM,28.0,6.1,39,30.05,10.0,ESE,8.1,-,N/A,,Mostly Cloudy,110,2013-03-04 02:53:00
9:53 PM,28.0,7.0,41,30.04,10.0,SE,8.1,-,N/A,,Overcast,130,2013-03-04 03:53:00
10:53 PM,28.0,6.1,39,30.03,10.0,ESE,6.9,-,N/A,,Overcast,120,2013-03-04 04:53:00
11:53 PM,28.0,6.1,39,30.04,10.0,ESE,8.1,-,N/A,,Overcast,120,2013-03-04 05:53:00